AFL820 UWGG-UUEE

Flight info

Callsign AFL820
Flight time N/A
Altitude 38000
Route LARNO2U LARNO T291 URIDU L158 DIMGI DIMGI3W
Aircraft A333/H-SDE3GHIJ2J3J5M1RVWXY/LB2D1

Departure

Time 2026-04-25 21:51
Airport Nizhny Novgorod / Strigino International Airport (UWGG)

Arrival

Time N/A
Airport Sheremetyevo International Airport (UUEE)
Time Latitude Longitude Altitude Speed Heading
2026-04-25 21:29 56.21983 43.78846 270 ft 0 kts 101°
2026-04-25 21:41 56.21986 43.78819 271 ft 3 kts 101°
2026-04-25 21:41 56.21990 43.78787 272 ft 3 kts 96°
2026-04-25 21:42 56.21987 43.78753 274 ft 3 kts 50°
2026-04-25 21:42 56.21973 43.78733 277 ft 1 kts
2026-04-25 21:45 56.22016 43.78738 271 ft 6 kts
2026-04-25 21:45 56.22072 43.78738 270 ft 10 kts 348°
2026-04-25 21:46 56.22154 43.78713 270 ft 14 kts
2026-04-25 21:46 56.22272 43.78755 270 ft 20 kts 11°
2026-04-25 21:46 56.22428 43.78818 270 ft 25 kts 24°
2026-04-25 21:46 56.22588 43.78895 270 ft 24 kts 10°
2026-04-25 21:47 56.22750 43.78953 270 ft 25 kts 12°
2026-04-25 21:47 56.22922 43.79016 270 ft 26 kts 11°
2026-04-25 21:47 56.23100 43.79081 270 ft 27 kts 11°
2026-04-25 21:47 56.23286 43.79148 270 ft 28 kts 13°
2026-04-25 21:48 56.23478 43.79219 270 ft 28 kts
2026-04-25 21:48 56.23676 43.79245 270 ft 29 kts
2026-04-25 21:48 56.23876 43.79261 270 ft 21 kts
2026-04-25 21:48 56.23957 43.79266 270 ft 12 kts
2026-04-25 21:49 56.24041 43.79244 270 ft 9 kts 331°
2026-04-25 21:49 56.24057 43.79221 270 ft 0 kts 321°
2026-04-25 21:49 56.24059 43.79217 270 ft 2 kts 321°
2026-04-25 21:49 56.24077 43.79184 270 ft 6 kts 310°
2026-04-25 21:50 56.24108 43.79097 270 ft 10 kts 293°
2026-04-25 21:50 56.24113 43.79001 272 ft 3 kts 243°
2026-04-25 21:50 56.24098 43.78996 273 ft 4 kts 190°
2026-04-25 21:50 56.24062 43.78982 271 ft 18 kts 192°
2026-04-25 21:51 56.23399 43.78733 270 ft 130 kts 191°
2026-04-25 21:51 56.22257 43.78349 419 ft 196 kts 189°
2026-04-25 21:51 56.20840 43.77864 1123 ft 208 kts 193°
2026-04-25 21:51 56.19490 43.77229 2130 ft 198 kts 201°
2026-04-25 21:52 56.18617 43.76506 2433 ft 219 kts 207°
2026-04-25 21:52 56.17186 43.75137 2956 ft 242 kts 209°
2026-04-25 21:52 56.15674 43.73714 3783 ft 249 kts 209°
2026-04-25 21:52 56.13597 43.71845 5038 ft 254 kts 209°
2026-04-25 21:53 56.11995 43.70445 6011 ft 258 kts 209°
2026-04-25 21:53 56.10896 43.69495 6643 ft 261 kts 209°
2026-04-25 21:53 56.08699 43.67612 7879 ft 267 kts 209°
2026-04-25 21:53 56.07560 43.66640 8534 ft 270 kts 210°
2026-04-25 21:54 56.05842 43.65178 9486 ft 275 kts 210°
2026-04-25 21:54 56.04117 43.63713 10296 ft 282 kts 210°
2026-04-25 21:54 56.02282 43.62127 10707 ft 303 kts 213°
2026-04-25 21:54 56.00653 43.59629 11003 ft 319 kts 232°
2026-04-25 21:55 55.99187 43.56518 11480 ft 334 kts 233°
2026-04-25 21:55 55.97694 43.53282 12238 ft 340 kts 233°
2026-04-25 21:55 55.96163 43.50025 13083 ft 344 kts 232°
2026-04-25 21:55 55.94594 43.46746 13892 ft 349 kts 232°
2026-04-25 21:56 55.93005 43.43459 14668 ft 352 kts 232°
2026-04-25 21:56 55.91940 43.41271 15191 ft 353 kts 232°
2026-04-25 21:56 55.89769 43.36826 16241 ft 356 kts 232°
2026-04-25 21:56 55.88157 43.33539 17010 ft 359 kts 232°
2026-04-25 21:57 55.86499 43.30163 17743 ft 362 kts 232°
2026-04-25 21:57 55.84835 43.26781 18443 ft 365 kts 232°
2026-04-25 21:57 55.83153 43.23370 19063 ft 368 kts 232°
2026-04-25 21:57 55.81459 43.19938 19692 ft 371 kts 232°
2026-04-25 21:58 55.79691 43.16567 20307 ft 375 kts 228°
2026-04-25 21:58 55.78075 43.12982 20892 ft 372 kts 244°
2026-04-25 21:58 55.77300 43.08611 21493 ft 372 kts 264°
2026-04-25 21:58 55.77466 43.04098 22062 ft 375 kts 283°
2026-04-25 21:59 55.78366 42.99711 22653 ft 380 kts 291°
2026-04-25 21:59 55.79418 42.95394 23218 ft 382 kts 290°
2026-04-25 21:59 55.80340 42.90920 23658 ft 385 kts 285°
2026-04-25 22:00 55.81535 42.81484 24341 ft 395 kts 277°
2026-04-25 22:00 55.81886 42.76621 24775 ft 398 kts 275°
2026-04-25 22:00 55.82159 42.71702 25238 ft 400 kts 274°
2026-04-25 22:00 55.82398 42.66770 25682 ft 403 kts 274°
2026-04-25 22:01 55.82632 42.61787 26142 ft 405 kts 274°
2026-04-25 22:01 55.82873 42.56769 26577 ft 408 kts 274°
2026-04-25 22:01 55.83120 42.51795 27040 ft 409 kts 275°
2026-04-25 22:01 55.83293 42.48399 27351 ft 410 kts 275°
2026-04-25 22:02 55.83643 42.41651 27925 ft 413 kts 275°
2026-04-25 22:02 55.83909 42.36535 28336 ft 416 kts 275°
2026-04-25 22:02 55.84175 42.31424 28752 ft 418 kts 275°
2026-04-25 22:02 55.84443 42.26212 29181 ft 421 kts 275°
2026-04-25 22:03 55.84705 42.21078 29576 ft 423 kts 275°
2026-04-25 22:03 55.84969 42.15849 29914 ft 426 kts 275°
2026-04-25 22:03 55.85233 42.10565 30067 ft 432 kts 275°
2026-04-25 22:03 55.85498 42.05205 30338 ft 435 kts 275°
2026-04-25 22:04 55.85759 41.99873 30808 ft 433 kts 275°
2026-04-25 22:04 55.86020 41.94499 31249 ft 433 kts 275°
2026-04-25 22:04 55.86276 41.89181 31756 ft 430 kts 275°
2026-04-25 22:04 55.86529 41.83862 32158 ft 431 kts 275°
2026-04-25 22:05 55.86734 41.78592 32477 ft 432 kts 272°
2026-04-25 22:05 55.86746 41.73157 32825 ft 433 kts 269°
2026-04-25 22:05 55.86808 41.67865 33170 ft 434 kts 277°
2026-04-25 22:05 55.87654 41.62696 33502 ft 439 kts 293°
2026-04-25 22:06 55.89342 41.58124 33802 ft 447 kts 309°
2026-04-25 22:06 55.91745 41.54537 34060 ft 457 kts 324°
2026-04-25 22:06 55.94601 41.51965 34334 ft 463 kts 331°
2026-04-25 22:06 55.97590 41.49713 34607 ft 465 kts 333°
2026-04-25 22:07 56.00587 41.47510 34916 ft 466 kts 333°
2026-04-25 22:07 56.02579 41.46048 35140 ft 465 kts 333°
2026-04-25 22:07 56.06569 41.43114 35658 ft 462 kts 333°
2026-04-25 22:07 56.09512 41.40941 35967 ft 462 kts 333°
2026-04-25 22:08 56.12457 41.38761 36622 ft 453 kts 333°
2026-04-25 22:08 56.15350 41.36617 37232 ft 446 kts 333°
2026-04-25 22:08 56.18203 41.34494 37589 ft 444 kts 333°
2026-04-25 22:08 56.21064 41.32355 37689 ft 446 kts 333°
2026-04-25 22:09 56.26687 41.27734 37670 ft 440 kts 325°
2026-04-25 22:09 56.31461 41.20846 37671 ft 442 kts 308°
2026-04-25 22:10 56.34618 41.11757 37618 ft 419 kts 289°
2026-04-25 22:10 56.35479 41.06793 37342 ft 411 kts 280°
2026-04-25 22:10 56.35855 41.01740 36996 ft 407 kts 271°
2026-04-25 22:11 56.35763 40.96641 36608 ft 405 kts 263°
2026-04-25 22:11 56.35217 40.91668 36180 ft 404 kts 254°
2026-04-25 22:11 56.34234 40.86910 35757 ft 404 kts 246°
2026-04-25 22:11 56.32722 40.82659 35303 ft 406 kts 232°
2026-04-25 22:12 56.30792 40.78926 34822 ft 406 kts 229°
2026-04-25 22:12 56.28847 40.75328 34353 ft 405 kts 230°
2026-04-25 22:12 56.26876 40.71637 33915 ft 403 kts 230°
2026-04-25 22:12 56.25599 40.69216 33599 ft 402 kts 230°
2026-04-25 22:13 56.23069 40.64369 32636 ft 403 kts 232°
2026-04-25 22:13 56.21149 40.60667 31857 ft 407 kts 232°
2026-04-25 22:13 56.19217 40.56921 31075 ft 410 kts 235°
2026-04-25 22:13 56.17319 40.53160 30258 ft 414 kts 236°
2026-04-25 22:14 56.15356 40.49281 29331 ft 417 kts 236°
2026-04-25 22:14 56.13359 40.45371 28342 ft 421 kts 235°
2026-04-25 22:14 56.11392 40.41552 27391 ft 423 kts 234°
2026-04-25 22:14 56.09387 40.37683 26507 ft 424 kts 233°
2026-04-25 22:15 56.07381 40.33837 25896 ft 419 kts 233°
2026-04-25 22:15 56.05423 40.30098 25671 ft 404 kts 233°
2026-04-25 22:15 56.03534 40.26497 25659 ft 390 kts 234°
2026-04-25 22:16 55.99845 40.19431 25659 ft 389 kts 234°
2026-04-25 22:16 55.97997 40.15896 25639 ft 389 kts 234°
2026-04-25 22:16 55.96141 40.12359 25659 ft 390 kts 234°
2026-04-25 22:16 55.94290 40.08839 25658 ft 390 kts 234°
2026-04-25 22:17 55.92429 40.05306 25653 ft 390 kts 234°
2026-04-25 22:17 55.90593 40.01827 25635 ft 390 kts 234°
2026-04-25 22:17 55.88733 39.98308 25635 ft 390 kts 234°
2026-04-25 22:17 55.86871 39.94792 25653 ft 390 kts 234°
2026-04-25 22:18 55.85010 39.91283 25621 ft 390 kts 234°
2026-04-25 22:18 55.83146 39.87774 25639 ft 389 kts 234°
2026-04-25 22:18 55.81282 39.84269 25638 ft 389 kts 234°
2026-04-25 22:18 55.79385 39.80829 25650 ft 390 kts 234°
2026-04-25 22:19 55.77873 39.76989 25645 ft 373 kts 253°
2026-04-25 22:19 55.77352 39.72624 25637 ft 354 kts 273°
2026-04-25 22:19 55.77547 39.68310 25394 ft 348 kts 278°
2026-04-25 22:19 55.77738 39.64029 24855 ft 348 kts 275°
2026-04-25 22:20 55.77759 39.59723 24239 ft 349 kts 271°
2026-04-25 22:20 55.77649 39.55465 23663 ft 350 kts 269°
2026-04-25 22:20 55.77467 39.51151 23043 ft 349 kts 270°
2026-04-25 22:20 55.77272 39.46866 22340 ft 348 kts 269°
2026-04-25 22:21 55.77044 39.42589 21645 ft 346 kts 268°
2026-04-25 22:21 55.76786 39.38329 20969 ft 345 kts 267°
2026-04-25 22:21 55.76512 39.34110 20314 ft 344 kts 266°
2026-04-25 22:21 55.76225 39.29899 19806 ft 341 kts 266°
2026-04-25 22:22 55.75935 39.25717 19504 ft 340 kts 265°
2026-04-25 22:22 55.75644 39.21551 19255 ft 340 kts 265°
2026-04-25 22:22 55.75354 39.17447 19010 ft 340 kts 265°
2026-04-25 22:22 55.75056 39.13250 18758 ft 344 kts 265°
2026-04-25 22:23 55.74752 39.09003 18504 ft 349 kts 264°
2026-04-25 22:23 55.74443 39.04741 18253 ft 350 kts 264°
2026-04-25 22:23 55.74130 39.00465 18011 ft 349 kts 264°
2026-04-25 22:23 55.73817 38.96175 17755 ft 348 kts 264°
2026-04-25 22:24 55.73514 38.91929 17486 ft 347 kts 269°
2026-04-25 22:24 55.73712 38.87680 17193 ft 345 kts 276°
2026-04-25 22:24 55.73967 38.83451 16970 ft 346 kts 277°
2026-04-25 22:24 55.74229 38.79184 16705 ft 346 kts 276°
2026-04-25 22:25 55.74471 38.74949 16476 ft 345 kts 276°
2026-04-25 22:25 55.74697 38.70696 16240 ft 345 kts 276°
2026-04-25 22:25 55.74909 38.66501 16003 ft 344 kts 275°
2026-04-25 22:25 55.75118 38.62278 15757 ft 343 kts 275°
2026-04-25 22:26 55.75286 38.58061 15467 ft 342 kts 272°
2026-04-25 22:26 55.75537 38.53865 15208 ft 342 kts 287°
2026-04-25 22:26 55.76765 38.50252 14921 ft 345 kts 310°
2026-04-25 22:26 55.78440 38.47166 14635 ft 349 kts 312°
2026-04-25 22:27 55.80092 38.43967 14405 ft 350 kts 309°
2026-04-25 22:27 55.81645 38.40637 14169 ft 349 kts 307°
2026-04-25 22:27 55.83152 38.37267 13941 ft 348 kts 307°
2026-04-25 22:27 55.84671 38.33908 13608 ft 347 kts 307°
2026-04-25 22:28 55.86171 38.30550 13362 ft 345 kts 307°
2026-04-25 22:28 55.87628 38.27241 13457 ft 344 kts 307°
2026-04-25 22:28 55.89087 38.23911 13549 ft 333 kts 307°
2026-04-25 22:28 55.90516 38.20639 13556 ft 341 kts 307°
2026-04-25 22:29 55.91984 38.17249 13538 ft 349 kts 306°
2026-04-25 22:29 55.93472 38.13794 13542 ft 351 kts 306°
2026-04-25 22:29 55.94955 38.10349 13544 ft 350 kts 306°
2026-04-25 22:30 55.97926 38.03441 13533 ft 350 kts 306°
2026-04-25 22:30 55.99409 37.99987 13530 ft 350 kts 306°
2026-04-25 22:30 56.00863 37.96502 13520 ft 349 kts 302°
2026-04-25 22:30 56.01888 37.94271 13471 ft 355 kts 320°
2026-04-25 22:31 56.05012 37.92569 13584 ft 361 kts
2026-04-25 22:31 56.07346 37.94056 13641 ft 359 kts 36°
2026-04-25 22:31 56.08866 37.97422 13778 ft 344 kts 68°
2026-04-25 22:31 56.09156 38.01505 13783 ft 324 kts 106°
2026-04-25 22:32 56.08167 38.04734 13945 ft 278 kts 155°
2026-04-25 22:32 56.06466 38.05661 13917 ft 252 kts 194°
2026-04-25 22:32 56.04917 38.04311 13366 ft 253 kts 233°
2026-04-25 22:32 56.04236 38.01497 13097 ft 253 kts 272°
2026-04-25 22:33 56.04773 37.98485 12873 ft 262 kts 304°
2026-04-25 22:33 56.06166 37.96459 13163 ft 257 kts 335°
2026-04-25 22:33 56.07886 37.96130 13520 ft 253 kts
2026-04-25 22:33 56.09513 37.97440 13532 ft 262 kts 39°
2026-04-25 22:34 56.10560 38.00077 13604 ft 263 kts 74°
2026-04-25 22:34 56.10648 38.03285 13609 ft 258 kts 113°
2026-04-25 22:34 56.09681 38.05801 13584 ft 241 kts 157°
2026-04-25 22:34 56.08155 38.06354 13533 ft 220 kts 204°
2026-04-25 22:35 56.07020 38.04768 13472 ft 209 kts 250°
2026-04-25 22:35 56.06965 38.02232 13459 ft 214 kts 293°
2026-04-25 22:35 56.08067 38.00395 13446 ft 234 kts 339°
2026-04-25 22:35 56.09731 38.00575 13414 ft 256 kts 24°
2026-04-25 22:36 56.10974 38.02895 13405 ft 268 kts 70°
2026-04-25 22:36 56.11058 38.06139 13426 ft 262 kts 116°
2026-04-25 22:36 56.09992 38.08494 13493 ft 241 kts 162°
2026-04-25 22:36 56.08465 38.08775 13589 ft 213 kts 210°
2026-04-25 22:37 56.07519 38.07053 13710 ft 193 kts 259°
2026-04-25 22:37 56.07791 38.04801 13839 ft 196 kts 310°
2026-04-25 22:37 56.09082 38.03882 13994 ft 222 kts
2026-04-25 22:37 56.10583 38.05055 14023 ft 256 kts 41°
2026-04-25 22:38 56.11323 38.06784 14003 ft 273 kts 67°
2026-04-25 22:38 56.11594 38.10168 13995 ft 282 kts 107°
2026-04-25 22:38 56.10165 38.13966 13666 ft 291 kts 157°
2026-04-25 22:38 56.08886 38.14731 13494 ft 280 kts 184°
2026-04-25 22:39 56.07088 38.13960 13261 ft 263 kts 221°
2026-04-25 22:39 56.06069 38.11425 13064 ft 252 kts 260°
2026-04-25 22:39 56.06240 38.08428 13045 ft 248 kts 293°
2026-04-25 22:39 56.07326 38.06067 13009 ft 251 kts 323°
2026-04-25 22:40 56.08825 38.04494 12899 ft 247 kts 323°
2026-04-25 22:40 56.10111 38.02543 12756 ft 239 kts 310°
2026-04-25 22:40 56.11269 38.00419 12611 ft 238 kts 314°
2026-04-25 22:40 56.12490 37.98377 12328 ft 242 kts 313°
2026-04-25 22:41 56.13694 37.96214 11966 ft 249 kts 314°
2026-04-25 22:41 56.14977 37.94071 11629 ft 255 kts 316°
2026-04-25 22:41 56.16329 37.91996 11447 ft 255 kts 319°
2026-04-25 22:41 56.17672 37.89921 11217 ft 253 kts 314°
2026-04-25 22:42 56.18904 37.87680 11000 ft 253 kts 312°
2026-04-25 22:42 56.20099 37.85351 10778 ft 250 kts 304°
2026-04-25 22:42 56.21042 37.82794 10751 ft 242 kts 303°
2026-04-25 22:42 56.22105 37.80579 10947 ft 227 kts 312°
2026-04-25 22:43 56.23207 37.78634 10939 ft 222 kts 313°
2026-04-25 22:43 56.24328 37.76693 10676 ft 229 kts 314°
2026-04-25 22:43 56.25507 37.74647 10196 ft 242 kts 314°
2026-04-25 22:43 56.26752 37.72474 9729 ft 255 kts 314°
2026-04-25 22:44 56.28027 37.70241 9517 ft 254 kts 314°
2026-04-25 22:44 56.29278 37.68057 9498 ft 246 kts 314°
2026-04-25 22:44 56.30491 37.65949 9497 ft 238 kts 314°
2026-04-25 22:44 56.31668 37.63908 9496 ft 231 kts 314°
2026-04-25 22:45 56.32810 37.61936 9516 ft 224 kts 314°
2026-04-25 22:45 56.33937 37.60034 9504 ft 219 kts 314°
2026-04-25 22:45 56.35044 37.58201 9497 ft 214 kts 314°
2026-04-25 22:45 56.36127 37.56416 9494 ft 208 kts 314°
2026-04-25 22:46 56.37187 37.54684 9491 ft 203 kts 314°
2026-04-25 22:46 56.38227 37.53015 9491 ft 199 kts 316°
2026-04-25 22:46 56.39487 37.51958 9489 ft 209 kts 350°
2026-04-25 22:46 56.40924 37.52491 9486 ft 216 kts 24°
2026-04-25 22:47 56.42183 37.53877 9488 ft 213 kts 32°
2026-04-25 22:47 56.43386 37.55386 9488 ft 208 kts 33°
2026-04-25 22:47 56.44551 37.56874 9484 ft 202 kts 33°
2026-04-25 22:47 56.45683 37.58332 9484 ft 196 kts 33°
2026-04-25 22:48 56.46765 37.59736 9479 ft 188 kts 33°
2026-04-25 22:48 56.47817 37.61109 9475 ft 182 kts 33°
2026-04-25 22:48 56.48806 37.62745 9610 ft 209 kts 52°